Location: Canazei
(46.4667°N, 11.7667°E)
Time: 19:14:30
(UTC+00:00)

Envisat - Pass Details

Date: 05 October 2021
Orbit: 764 x 766 km, 98.2° (Epoch: 27 October)

Event Time Altitude Azimuth Distance (km) Brightness Sun altitude
Rises 02:45:55 0° 35° (NE) 3,240 7.1 -26.3°
Reaches altitude 10° 02:50:43 10° 76° (ENE) 2,305 6.5 -25.5°
Maximum altitude 02:51:33 10° 85° (E) 2,278 6.4 -25.4°
Drops below altitude 10° 02:52:23 10° 95° (E) 2,302 6.3 -25.3°
Sets 02:57:08 0° 136° (SE) 3,219 6.5 -24.5°
